TimeCST,TemperatureF,Dew PointF,Humidity,Sea Level PressureIn,VisibilityMPH,Wind Direction,Wind SpeedMPH,Gust SpeedMPH,PrecipitationIn,Events,Conditions,WindDirDegrees,DateUTC
12:15 AM,-21.3,-27.4,73,30.34,10.0,Calm,Calm,-,N/A,,Clear,0,2014-03-03 06:15:00
12:30 AM,-20.9,-26.7,75,30.34,10.0,Calm,Calm,-,N/A,,Clear,0,2014-03-03 06:30:00
12:55 AM,-22.9,-28.3,76,30.35,10.0,Calm,Calm,-,N/A,,Clear,0,2014-03-03 06:55:00
1:15 AM,-24.2,-30.1,74,30.35,10.0,Calm,Calm,-,N/A,,Clear,0,2014-03-03 07:15:00
1:35 AM,-23.8,-28.8,77,30.35,10.0,Calm,Calm,-,N/A,,Clear,0,2014-03-03 07:35:00
1:55 AM,-25.1,-31.2,73,30.35,10.0,Calm,Calm,-,N/A,,Clear,0,2014-03-03 07:55:00
2:15 AM,-25.4,-31.4,74,30.35,10.0,Calm,Calm,-,N/A,,Clear,0,2014-03-03 08:15:00
2:35 AM,-25.4,-31.4,74,30.35,10.0,Calm,Calm,-,N/A,,Clear,0,2014-03-03 08:35:00
2:55 AM,-29.2,-35.5,72,30.35,10.0,Calm,Calm,-,N/A,,Clear,0,2014-03-03 08:55:00
3:15 AM,-28.5,-35.1,70,30.35,10.0,Calm,Calm,-,N/A,,Clear,0,2014-03-03 09:15:00
3:35 AM,-28.7,-35.5,70,30.36,10.0,Calm,Calm,-,N/A,,Clear,0,2014-03-03 09:35:00
3:55 AM,-27.8,-34.6,70,30.36,10.0,Calm,Calm,-,N/A,,Clear,0,2014-03-03 09:55:00
4:15 AM,-29.6,-36.4,70,30.36,10.0,Calm,Calm,-,N/A,,Clear,0,2014-03-03 10:15:00
4:35 AM,-29.2,-36.4,68,30.36,10.0,Calm,Calm,-,N/A,,Clear,0,2014-03-03 10:35:00
4:55 AM,-30.1,-36.9,70,30.36,10.0,Calm,Calm,-,N/A,,Clear,0,2014-03-03 10:55:00
5:15 AM,-30.3,-37.1,70,30.36,10.0,Calm,Calm,-,N/A,,Clear,0,2014-03-03 11:15:00
5:35 AM,-31.5,-38.6,69,30.36,10.0,Calm,Calm,-,N/A,,Clear,0,2014-03-03 11:35:00
5:55 AM,-31.7,-38.9,68,30.35,10.0,Calm,Calm,-,N/A,,Clear,0,2014-03-03 11:55:00
6:15 AM,-30.1,-36.9,70,30.35,10.0,Calm,Calm,-,N/A,,Clear,0,2014-03-03 12:15:00
6:35 AM,-31.9,-39.3,67,30.35,10.0,Calm,Calm,-,N/A,,Clear,0,2014-03-03 12:35:00
6:55 AM,-31.5,-38.7,68,30.35,10.0,Calm,Calm,-,N/A,,Clear,0,2014-03-03 12:55:00
7:10 AM,-31.2,-39.1,65,30.35,10.0,Calm,Calm,-,N/A,,Clear,0,2014-03-03 13:10:00
7:35 AM,-28.8,-36.8,66,30.35,10.0,Calm,Calm,-,N/A,,Clear,0,2014-03-03 13:35:00
7:55 AM,-26.7,-33.2,71,30.35,10.0,Calm,Calm,-,N/A,,Clear,0,2014-03-03 13:55:00
8:15 AM,-22.7,-29.6,70,30.34,10.0,Calm,Calm,-,N/A,,Clear,0,2014-03-03 14:15:00
8:35 AM,-12.6,-20.0,70,30.34,10.0,Calm,Calm,-,N/A,,Clear,0,2014-03-03 14:35:00
8:55 AM,-10.8,-19.7,65,30.34,10.0,Calm,Calm,-,N/A,,Clear,0,2014-03-03 14:55:00
9:15 AM,-7.4,-17.1,63,30.33,10.0,Calm,Calm,-,N/A,,Clear,0,2014-03-03 15:15:00
9:35 AM,-4.0,-16.1,56,30.33,10.0,SSW,4.6,-,N/A,,Clear,210,2014-03-03 15:35:00
9:55 AM,-0.2,-14.8,50,30.33,10.0,West,6.9,-,N/A,,Clear,270,2014-03-03 15:55:00
10:15 AM,0.9,-14.8,48,30.33,10.0,West,10.4,-,N/A,,Clear,270,2014-03-03 16:15:00
10:35 AM,2.3,-14.3,46,30.32,10.0,West,9.2,16.1,N/A,,Clear,270,2014-03-03 16:35:00
10:55 AM,3.2,-13.5,46,30.32,10.0,West,8.1,-,N/A,,Clear,270,2014-03-03 16:55:00
11:15 AM,4.3,-12.8,45,30.31,10.0,West,5.8,-,N/A,,Clear,280,2014-03-03 17:15:00
11:35 AM,6.3,-11.4,44,30.30,10.0,West,6.9,-,N/A,,Clear,270,2014-03-03 17:35:00
11:55 AM,7.3,-10.5,44,30.30,10.0,West,5.8,-,N/A,,Clear,280,2014-03-03 17:55:00
12:15 PM,9.1,-9.2,43,30.30,10.0,Calm,Calm,-,N/A,,Clear,0,2014-03-03 18:15:00
12:35 PM,9.5,-8.3,44,30.29,10.0,WNW,8.1,-,N/A,,Clear,290,2014-03-03 18:35:00
12:55 PM,10.4,-7.6,44,30.28,10.0,West,8.1,-,N/A,,Clear,270,2014-03-03 18:55:00
1:15 PM,10.4,-8.3,43,30.26,10.0,WNW,6.9,-,N/A,,Clear,300,2014-03-03 19:15:00
1:35 PM,11.8,-7.1,43,30.25,10.0,West,5.8,-,N/A,,Clear,270,2014-03-03 19:35:00
1:55 PM,12.9,-6.2,42,30.25,10.0,West,9.2,-,N/A,,Clear,270,2014-03-03 19:55:00
2:15 PM,12.9,-6.3,42,30.25,10.0,West,9.2,-,N/A,,Clear,260,2014-03-03 20:15:00
2:35 PM,13.5,-6.0,42,30.25,10.0,WSW,8.1,-,N/A,,Clear,250,2014-03-03 20:35:00
2:55 PM,13.1,-5.8,43,30.24,10.0,West,10.4,-,N/A,,Clear,270,2014-03-03 20:55:00
3:15 PM,13.3,-6.3,41,30.23,10.0,West,6.9,-,N/A,,Scattered Clouds,270,2014-03-03 21:15:00
3:35 PM,13.5,-5.8,42,30.23,10.0,WSW,8.1,-,N/A,,Scattered Clouds,250,2014-03-03 21:35:00
3:55 PM,13.1,-7.2,40,30.23,10.0,WSW,8.1,-,N/A,,Mostly Cloudy,250,2014-03-03 21:55:00
4:15 PM,12.9,-7.1,41,30.23,10.0,WSW,8.1,-,N/A,,Overcast,240,2014-03-03 22:15:00
4:35 PM,12.6,-7.2,41,30.22,10.0,West,8.1,-,N/A,,Overcast,260,2014-03-03 22:35:00
4:55 PM,12.2,-7.8,41,30.23,10.0,West,6.9,-,N/A,,Overcast,260,2014-03-03 22:55:00
5:15 PM,12.0,-8.0,41,30.22,10.0,WSW,4.6,-,N/A,,Overcast,240,2014-03-03 23:15:00
5:35 PM,11.5,-7.8,42,30.22,10.0,SW,9.2,-,N/A,,Overcast,220,2014-03-03 23:35:00
5:55 PM,10.4,-3.5,54,30.22,10.0,WSW,8.1,-,N/A,,Overcast,250,2014-03-03 23:55:00
6:15 PM,9.5,1.2,69,30.22,4.0,WSW,6.9,-,N/A,Snow,Light Snow,240,2014-03-04 00:15:00
6:35 PM,8.6,3.0,78,30.22,3.0,SW,6.9,-,N/A,Snow,Light Snow,230,2014-03-04 00:35:00
6:55 PM,7.9,3.2,81,30.22,2.5,SW,5.8,-,N/A,Snow,Light Snow,230,2014-03-04 00:55:00
7:15 PM,7.5,3.0,82,30.22,2.5,SW,4.6,-,N/A,Snow,Light Snow,220,2014-03-04 01:15:00
7:35 PM,7.2,3.0,83,30.20,2.0,SSW,4.6,-,N/A,Snow,Light Snow,210,2014-03-04 01:35:00
7:55 PM,6.8,2.7,83,30.20,2.5,SSW,4.6,-,N/A,Snow,Light Snow,210,2014-03-04 01:55:00
8:15 PM,6.8,2.3,82,30.20,2.5,SW,5.8,-,N/A,Snow,Light Snow,230,2014-03-04 02:15:00
8:35 PM,6.6,2.1,82,30.20,3.0,SW,5.8,-,N/A,Snow,Light Snow,230,2014-03-04 02:35:00
8:55 PM,6.3,2.1,83,30.20,2.5,SW,8.1,-,N/A,Snow,Light Snow,220,2014-03-04 02:55:00
9:15 PM,5.7,1.2,82,30.20,1.8,WSW,6.9,-,N/A,Snow,Light Snow,240,2014-03-04 03:15:00
9:35 PM,5.4,0.5,80,30.20,2.5,SW,6.9,-,N/A,Snow,Light Snow,230,2014-03-04 03:35:00
9:55 PM,5.0,0.3,81,30.20,3.0,SW,5.8,-,N/A,Snow,Light Snow,220,2014-03-04 03:55:00
10:15 PM,5.0,0.1,80,30.20,3.0,SW,5.8,-,N/A,Snow,Light Snow,230,2014-03-04 04:15:00
10:35 PM,4.3,-0.6,80,30.19,5.0,SW,8.1,-,N/A,Snow,Light Snow,230,2014-03-04 04:35:00
10:55 PM,3.9,-1.3,79,30.18,4.0,SW,5.8,-,N/A,Snow,Light Snow,220,2014-03-04 04:55:00
11:15 PM,3.6,-1.3,80,30.18,4.0,SW,3.5,-,N/A,Snow,Light Snow,220,2014-03-04 05:15:00
11:35 PM,3.6,-1.3,80,30.17,5.0,SSW,4.6,-,N/A,Snow,Light Snow,210,2014-03-04 05:35:00
11:55 PM,3.6,-1.3,80,30.16,5.0,SW,3.5,-,N/A,Snow,Light Snow,220,2014-03-04 05:55:00